STARLINK-32912, 63088

Orbit data source: Space-Track

STARLINK-32912, 63088 is a payload satellite owned by SpaceX/Seattle (US) in LEO that was launched on Sun, 23 Feb 2025 UTC via an FALCON 9 launch vehicle from the Air Force Western Test Range (AFWTR). Payload-class satellites include a variety of spacecraft equipped with specific instruments for various scientific and technological missions. These include communications satellites like Starlink; space stations such as the ISS; scientific satellites like the Hubble; Earth observation satellites from companies like Planet Labs, Umbra, and HawkEye 360; GPS; miniature CubeSats for education and research; and military/defense satellites.

Loading next visibility...
Identifier
63088, 2025-037M
Orbit
LEO
Country
Flag of USUS
Related business
Manufacturer
SpaceX/Seattle
Mission
Operational Commercial Communications
Bus & Motor
STARLINK V2M, Unknown motor
Mass
730 kg wet, ~700 kg dry
Launch date (UTC)
2025-02-23 (1 year ago)
Launch vehicle
FALCON 9
Launch site
Air Force Western Test Range (AFWTR)
Object type
Payload
Rocket body
Debris
Shape & HBR
Box + 2 Pan, 17.7 m
Radar Cross Section
33.884 m², Large (>1 m²)

Expand to show TLE details & history
Last TLE update: 16 hours ago

TLE from 16 hours ago
0 STARLINK-32912
1 63088U 25037M   26171.21639661  .00003732  00000-0  32029-3 0  9997
2 63088  70.0009  95.7868 0002593 272.8897  87.1965 14.98341911 74062
Epoch: 2026-06-20T05:11Z
TLE epoch observation values (Epoch: 2026-06-20T05:11:36.667Z)
Latitude
-0.00003°
Longitude
109.44981°
Altitude
574.355 km
Speed
7.574 km/s
True Right ascension
06h 23m 08s
True Declination
0° 00' 00"
Sunlit
Object was in daylight at epoch
Visualization orbit readout
Latitude
Unknown
Longitude
Unknown
Altitude
Unknown
Speed
Unknown
Apparent Right ascension
Unknown
Apparent Declination
Unknown
Sunlit
N/A
Visualization observer readout
Local Sidereal Time
08:33:18
Azimuth
Unknown
Elevation
Unknown
Doppler factor
Unknown
Orbital elements
Apogee altitude
571.769 km
Perigee altitude
568.166 km
Semi-major axis
6,948.104 km
Eccentricity
0.00026
Inclination
70.0009°
RAAN
95.7868°
Arg. of periapsis
272.8897°
True anomaly
87.22618°
Mean anomaly
87.1965°
Eccentric anomaly
87.21134°
Mean motion
3.74752 °/min
Orbital period
96.06 mins
BSTAR
0.00032029
Loading maneuver chart data...
Computing Atmospheric mass density...
Loading historical data...
Loading historical data...
Loading historical data...
Loading historical data...
Loading historical data...
Loading historical data...
Loading historical data...

Documentation

Showing up to 5 results
|